Weather History for Nebraska City, NE

Change the Weather History Date:

Wednesday, January 2, 2013

  Actual Average (KSDA) Record (KSDA)
Temperature  
Mean Temperature 24 °F -  
Max Temperature 32 °F 31 °F 60 °F (1964)
Min Temperature 15 °F 14 °F -16 °F (2001)
Degree Days  
Heating Degree Days 42    
Moisture  
Dew Point 20 °F    
Average Humidity 83    
Maximum Humidity 88    
Minimum Humidity 76    
Precipitation  
Precipitation 0.00 in - - ()
Sea Level Pressure  
Sea Level Pressure 30.11 in    
Wind  
Wind Speed 10 mph (WSW)    
Max Wind Speed 16 mph    
Max Gust Speed -    
Visibility 10 miles    
Events Snow    
Averages and records for this station are not official NWS values.
T = Trace of Precipitation, MM = Missing Value Source: NWS Daily Summary

Daily Weather History Graph

Daily Weather History Graph

Search for Another Location

Airport:

Trip Planner

Search our weather history database for the weather conditions in past years. The results will help you decide how hot, cold, wet, or windy it might be!

Date:

Astronomy

Jan. 02, 2013 Rise Set
Actual Time 7:47 AM CST 5:08 PM CST
Civil Twilight 7:16 AM CST 5:38 PM CST
Nautical Twilight 6:42 AM CST 6:13 PM CST
Astronomical Twilight 6:09 AM CST 6:46 PM CST
Moon 10:43 PM CST (1/2) 10:28 AM CST (1/2)
Length of Visible Light 10h 22m
Length of Day
9h 20m
Waning Gibbous, 75% of the Moon is Illuminated
Jan 2
Waning Gibbous
Jan 4
Last Quarter
Jan 11
New
Jan 18
First Quarter
Jan 26
Full

Hourly Weather History & Observations

Time (CST) Temp. Windchill Dew Point Humidity Pressure Visibility Wind Dir Wind Speed Gust Speed Precip Events Conditions
12:15 AM 17.4 °F 2.9 °F 13.5 °F 84% 30.14 in 10.0 mi SW 15.0 mph - N/A   Clear
12:35 AM 17.4 °F 3.5 °F 13.1 °F 83% 30.12 in 10.0 mi SW 13.8 mph - N/A   Clear
12:55 AM 17.1 °F 3.6 °F 13.1 °F 84% 30.12 in 10.0 mi WSW 12.7 mph - N/A   Clear
1:15 AM 17.1 °F 3.0 °F 13.1 °F 84% 30.12 in 10.0 mi SW 13.8 mph - N/A   Clear
1:35 AM 17.1 °F 2.5 °F 13.1 °F 84% 30.11 in 10.0 mi SW 15.0 mph - N/A   Clear
1:55 AM 17.1 °F 3.6 °F 13.1 °F 84% 30.11 in 10.0 mi WSW 12.7 mph - N/A   Clear
2:15 AM 17.6 °F 3.7 °F 13.6 °F 84% 30.10 in 10.0 mi WSW 13.8 mph - N/A   Scattered Clouds
2:35 AM 18.3 °F 4.1 °F 14.2 °F 84% 30.10 in 10.0 mi WSW 15.0 mph - N/A   Scattered Clouds
2:55 AM 17.6 °F 4.3 °F 13.5 °F 84% 30.10 in 10.0 mi WSW 12.7 mph - N/A   Clear
3:15 AM 16.7 °F 2.0 °F 13.1 °F 86% 30.08 in 10.0 mi WSW 15.0 mph - N/A   Scattered Clouds
3:35 AM 15.8 °F 0.9 °F 12.0 °F 85% 30.08 in 10.0 mi WSW 15.0 mph - N/A   Scattered Clouds
3:55 AM 15.3 °F 0.2 °F 12.0 °F 87% 30.07 in 10.0 mi SW 15.0 mph - N/A   Scattered Clouds
4:15 AM 16.5 °F 1.3 °F 12.7 °F 85% 30.07 in 10.0 mi WSW 16.1 mph - N/A   Scattered Clouds
4:35 AM 16.7 °F 2.0 °F 13.1 °F 86% 30.06 in 10.0 mi SW 15.0 mph - N/A   Clear
4:55 AM 17.6 °F 2.7 °F 13.6 °F 84% 30.06 in 10.0 mi WSW 16.1 mph - N/A   Scattered Clouds
5:15 AM 17.1 °F 2.0 °F 13.1 °F 84% 30.05 in 10.0 mi WSW 16.1 mph - N/A   Clear
5:35 AM 17.1 °F 2.5 °F 13.1 °F 84% 30.05 in 10.0 mi SW 15.0 mph - N/A   Clear
5:55 AM 16.7 °F 1.5 °F 12.7 °F 84% 30.05 in 10.0 mi WSW 16.1 mph - N/A   Scattered Clouds
6:15 AM 16.3 °F 1.6 °F 12.2 °F 84% 30.06 in 10.0 mi WSW 15.0 mph - N/A   Scattered Clouds
6:35 AM 16.5 °F 1.8 °F 12.6 °F 84% 30.06 in 10.0 mi WSW 15.0 mph - N/A   Scattered Clouds
6:55 AM 17.1 °F 3.6 °F 12.7 °F 83% 30.06 in 10.0 mi SW 12.7 mph - N/A   Clear
7:15 AM 16.0 °F 3.6 °F 11.8 °F 84% 30.05 in 10.0 mi WSW 10.4 mph - N/A   Clear
7:35 AM 15.4 °F 1.6 °F 11.3 °F 84% 30.07 in 10.0 mi WSW 12.7 mph - N/A   Scattered Clouds
7:55 AM 15.6 °F 4.9 °F 11.5 °F 84% 30.07 in 10.0 mi WSW 8.1 mph - N/A   Scattered Clouds
8:15 AM 15.3 °F 5.4 °F 11.1 °F 84% 30.07 in 10.0 mi SW 6.9 mph - N/A   Clear
8:35 AM 15.8 °F 10.2 °F 11.3 °F 82% 30.07 in 10.0 mi SW 3.5 mph - N/A   Clear
8:55 AM 17.1 °F 5.0 °F 12.2 °F 81% 30.08 in 10.0 mi WSW 10.4 mph - N/A   Mostly Cloudy
9:15 AM 17.2 °F 6.0 °F 12.0 °F 80% 30.07 in 10.0 mi WSW 9.2 mph - N/A   Mostly Cloudy
9:35 AM 17.6 °F 8.2 °F 12.2 °F 79% 30.08 in 10.0 mi WSW 6.9 mph - N/A   Mostly Cloudy
9:55 AM 19.0 °F 7.5 °F 13.1 °F 78% 30.09 in 10.0 mi WSW 10.4 mph - N/A   Scattered Clouds
10:15 AM 20.1 °F 8.8 °F 14.0 °F 77% 30.10 in 10.0 mi SW 10.4 mph - N/A   Mostly Cloudy
10:35 AM 21.9 °F 11.0 °F 15.4 °F 76% 30.11 in 10.0 mi WSW 10.4 mph - N/A   Overcast
10:55 AM 22.5 °F 11.7 °F 16.7 °F 79% 30.11 in 10.0 mi WSW 10.4 mph - N/A   Overcast
11:15 AM 22.8 °F 10.9 °F 16.9 °F 78% 30.10 in 10.0 mi WSW 12.7 mph - N/A   Overcast
11:35 AM 23.5 °F 13.0 °F 18.1 °F 80% 30.10 in 10.0 mi WSW 10.4 mph - N/A   Overcast
11:55 AM 23.7 °F 13.3 °F 18.3 °F 80% 30.09 in 10.0 mi WSW 10.4 mph - N/A   Overcast
12:15 PM 24.8 °F 17.9 °F 19.6 °F 81% 30.08 in 5.0 mi WSW 5.8 mph - N/A Snow Light Snow
12:35 PM 25.0 °F - 20.1 °F 82% 30.08 in 10.0 mi Calm Calm - N/A   Overcast
12:55 PM 25.7 °F - 20.3 °F 80% 30.07 in 10.0 mi Calm Calm - N/A   Overcast
1:15 PM 27.1 °F - 21.9 °F 81% 30.07 in 10.0 mi Calm Calm - N/A   Overcast
1:35 PM 28.0 °F - 22.6 °F 80% 30.06 in 10.0 mi Calm Calm - N/A   Overcast
1:55 PM 29.7 °F - 23.9 °F 79% 30.06 in 10.0 mi Calm Calm - N/A   Scattered Clouds
2:15 PM 30.2 °F - 23.9 °F 77% 30.06 in 10.0 mi Calm Calm - N/A   Clear
2:35 PM 31.3 °F 22.7 °F 25.3 °F 79% 30.07 in 10.0 mi WSW 10.4 mph - N/A   Clear
2:55 PM 31.1 °F 23.1 °F 25.5 °F 80% 30.08 in 10.0 mi WSW 9.2 mph - N/A   Mostly Cloudy
3:15 PM 31.5 °F 24.2 °F 26.2 °F 81% 30.09 in 10.0 mi WSW 8.1 mph - N/A   Overcast
3:35 PM 31.6 °F - 26.4 °F 81% 30.09 in 10.0 mi Calm Calm - N/A   Overcast
3:55 PM 31.8 °F - 26.8 °F 82% 30.10 in 10.0 mi Calm Calm - N/A   Overcast
4:15 PM 31.8 °F 23.9 °F 26.6 °F 81% 30.11 in 10.0 mi WSW 9.2 mph - N/A   Overcast
4:35 PM 31.8 °F - 27.1 °F 83% 30.11 in 10.0 mi Calm Calm - N/A   Overcast
4:55 PM 31.6 °F - 27.3 °F 84% 30.11 in 10.0 mi Calm Calm - N/A   Overcast
5:15 PM 31.6 °F - 27.5 °F 85% 30.12 in 10.0 mi Calm Calm - N/A   Overcast
5:35 PM 31.8 °F - 27.9 °F 85% 30.12 in 10.0 mi Calm Calm - N/A   Overcast
5:55 PM 31.6 °F - 28.0 °F 87% 30.13 in 10.0 mi Calm Calm - N/A   Overcast
6:15 PM 32.0 °F - 28.4 °F 87% 30.14 in 10.0 mi Calm Calm - N/A   Overcast
6:35 PM 32.0 °F - 28.9 °F 88% 30.15 in 10.0 mi Calm Calm - N/A   Overcast
6:55 PM 32.7 °F - 28.4 °F 84% 30.16 in 10.0 mi Calm Calm - N/A   Overcast
7:15 PM 32.2 °F - 28.4 °F 86% 30.15 in 10.0 mi Calm Calm - N/A   Overcast
7:35 PM 32.0 °F - 28.2 °F 86% 30.16 in 10.0 mi Calm Calm - N/A   Overcast
7:55 PM 32.0 °F - 27.9 °F 85% 30.16 in 10.0 mi Calm Calm - N/A   Overcast
8:15 PM 32.0 °F - 28.0 °F 85% 30.16 in 10.0 mi Calm Calm - N/A   Overcast
8:35 PM 32.0 °F - 28.2 °F 86% 30.17 in 10.0 mi Calm Calm - N/A   Overcast
8:55 PM 32.0 °F - 28.0 °F 85% 30.17 in 10.0 mi Calm Calm - N/A   Overcast
9:15 PM 30.9 °F - 27.0 °F 85% 30.18 in 10.0 mi Calm Calm - N/A   Mostly Cloudy
9:35 PM 30.7 °F - 27.0 °F 86% 30.19 in 10.0 mi Calm Calm - N/A   Overcast
9:55 PM 31.1 °F - 27.3 °F 86% 30.19 in 10.0 mi Calm Calm - N/A   Overcast
10:15 PM 31.5 °F - 27.3 °F 85% 30.20 in 10.0 mi Calm Calm - N/A   Overcast
10:35 PM 31.6 °F 26.0 °F 27.5 °F 85% 30.21 in 10.0 mi West 5.8 mph - N/A   Overcast
10:55 PM 31.5 °F - 27.3 °F 85% 30.21 in 10.0 mi Calm Calm - N/A   Overcast
11:15 PM 31.1 °F - 27.1 °F 85% 30.21 in 10.0 mi Calm Calm - N/A   Overcast
11:35 PM 30.9 °F - 26.8 °F 85% 30.22 in 10.0 mi Calm Calm - N/A   Overcast
11:55 PM 29.8 °F - 26.2 °F 86% 30.22 in 10.0 mi Calm Calm - N/A   Overcast